Showing default

QIANFAN-27, 61560

Orbit data source: Space-Track

QIANFAN-27, 61560 is a Chinese payload satellite in LEO that was launched on Tue, 15 Oct 2024 UTC via a CHANG ZHENG 6A launch vehicle from the Taiyaun Space Center, China (TSC). Payload-class satellites include a variety of spacecraft equipped with specific instruments for various scientific and technological missions. These include communications satellites like Starlink; space stations such as the ISS; scientific satellites like the Hubble; Earth observation satellites from companies like Planet Labs, Umbra, and HawkEye 360; GPS; miniature CubeSats for education and research; and military/defense satellites.

Loading next visibility...
Identifier
61560, 2024-185J
Orbit
LEO
Country
Flag of CNCN / PRC
Related business
Manufacturer
GESIH/SECM
Mission
Partially operational Commercial Communications
Bus & Motor
QIANFAN, Unknown motor
Mass
267 kg wet, ~267 kg dry
Launch date (UTC)
2024-10-15 (2 years ago)
Launch vehicle
CHANG ZHENG 6A
Launch site
Taiyaun Space Center, China (TSC)
Object type
Payload
Rocket body
Debris
Shape & HBR
Box + 1 Pan, 5.0 m
Radar Cross Section
13.200 m², Large (>1 m²)

Expand to show TLE details & history
Last TLE update: 9 hours ago

TLE from 9 hours ago
0 QIANFAN-27
1 61560U 24185J   26162.88708356  .00000348  00000-0  13550-3 0  9992
2 61560  88.9829  55.7044 0009616  61.8953 298.3212 14.27533343 96000
Epoch: 2026-06-11T21:17Z
TLE epoch observation values (Epoch: 2026-06-11T21:17:24.019Z)
Latitude
-0.00004°
Longitude
-163.87012°
Altitude
799.781 km
Speed
7.455 km/s
True Right ascension
03h 42m 49s
True Declination
0° 00' 00"
Sunlit
Object was in daylight at epoch
Visualization orbit readout
Latitude
Unknown
Longitude
Unknown
Altitude
Unknown
Speed
Unknown
Apparent Right ascension
Unknown
Apparent Declination
Unknown
Sunlit
N/A
Visualization observer readout
Local Sidereal Time
16:57:27
Azimuth
Unknown
Elevation
Unknown
Doppler factor
Unknown
Orbital elements
Apogee altitude
803.828 km
Perigee altitude
790.029 km
Semi-major axis
7,175.065 km
Eccentricity
0.00096
Inclination
88.9829°
RAAN
55.7044°
Arg. of periapsis
61.8953°
True anomaly
298.22414°
Mean anomaly
298.3212°
Eccentric anomaly
298.27268°
Mean motion
3.57112 °/min
Orbital period
100.81 mins
BSTAR
0.0001355
Loading maneuver chart data...
Computing Atmospheric mass density...
Loading historical data...
Loading historical data...
Loading historical data...
Loading historical data...
Loading historical data...
Loading historical data...
Loading historical data...

Documentation

Showing up to 5 results
|